Flag for U.S.A. Weather past 2 weeks in Tempe, Arizona, U.S.A.

Now
91 °F

Passing clouds.


Feels Like: 87 °F
Forecast: 78 / 105 °F
Wind: 9 mph from Southeast

Location: Phoenix Sky Harbor International Airport

Current Time: Aug 30, 2014 at 10:00:51 AM

Latest Report: Aug 30, 2014 at 8:51 AM


Visibility: 10 mi

Pressure: 29.76 "Hg

Humidity: 20%

Dew point: 45 °F

Location of TempeLocation

Historic Weather in Tempe — Graph

°F

Tempe temperature yesterday

Maximum temperature yesterday: 108 °F (at 2:51 PM)
Minimum temperature yesterday: 84 °F (at 5:51 AM)
Average temperature yesterday: 96 °F

Past Weeks' High & Low Weather Summary

 TemperatureHumidityPressure
High108 °F (Aug 17, 2:51 PM)85% (Aug 19, 6:51 AM)29.97 "Hg (Aug 19, 6:51 AM)
Low72 °F (Aug 21, 9:51 PM)9% (Aug 29, 1:51 PM)29.63 "Hg (Aug 29, 5:51 PM)
Average90 °F38%29.80 "Hg
* Reported Aug 15 8:51 AM — Aug 30 8:51 AM, Tempe, Weather by CustomWeather, © 2014

Note: Actual official high and low records may vary slightly from our data, if they occured in-between our weather recording intervals... More about our weather records

Advertising

Tempe weather history for previous 24 hours

 ConditionsComfort  
Time TempWeatherWind HumidityBarometerVisibility
8:51 AM
Aug 30
91 °FPassing clouds.9 mph20%29.76 "Hg10 mi
7:51 AM87 °FPassing clouds.9 mph24%29.75 "Hg10 mi
6:51 AM84 °FPassing clouds.9 mph26%29.74 "Hg10 mi
5:51 AM84 °FPassing clouds.7 mph26%29.72 "Hg10 mi
4:51 AM85 °FClear.8 mph27%29.70 "Hg10 mi
3:51 AM86 °FClear.7 mph27%29.70 "Hg10 mi
2:51 AM87 °FClear.7 mph26%29.69 "Hg10 mi
1:51 AM88 °FClear.3 mph26%29.68 "Hg10 mi
12:51 AM90 °FClear.6 mph24%29.68 "Hg10 mi
11:51 PM
Aug 29
92 °FClear.5 mph21%29.68 "Hg10 mi
10:51 PM95 °FClear.3 mph18%29.67 "Hg10 mi
9:51 PM95 °FClear.3 mph18%29.67 "Hg10 mi
8:51 PM97 °FClear.6 mph16%29.66 "Hg10 mi
7:51 PM102 °FPassing clouds.9 mph12%29.65 "Hg10 mi
6:51 PM103 °FSunny.8 mph11%29.63 "Hg10 mi
5:51 PM105 °FSunny.10 mph10%29.63 "Hg10 mi
4:51 PM107 °FSunny.6 mph9%29.64 "Hg10 mi
3:51 PM106 °FSunny.No wind10%29.65 "Hg10 mi
2:51 PM108 °FSunny.7 mph9%29.66 "Hg10 mi
1:51 PM105 °FSunny.7 mph9%29.69 "Hg10 mi
11:51 AM102 °FSunny.3 mph12%29.73 "Hg10 mi
10:51 AM100 °FSunny.7 mph14%29.75 "Hg10 mi
Weather by CustomWeather, © 2014

See weather overviewHow to use our weather pages